国际空间站(ISS (ZARYA))

导读 | 星芒AI

ISS (ZARYA) 是国际空间站的第一个模块,由俄罗斯制造,于1998年11月20日发射。它为国际空间站提供了初始结构和推进能力,并具备太阳能电池板和通信系统。ZARYA(意为“黎明”)模块至今仍在使用,是国际空间站的重要组成部分,支持电力、推进和通信功能。该模块长约12.5米,直径4米,重达19.5吨,是国际空间站建设的起点,象征着多国合作的开端。

基本信息
目录编号:
25544
目录名称:
ISS (ZARYA)
国际标识:
1998-067A
轨道中心:
EARTH
卫星名称:
国际空间站
卫星全名:
国际空间站(ISS (ZARYA))
卫星状态:
在轨 (已飞行9839 天)
发射日期:
1998-11-20 UTC
国别 :
(ISS)
星等 :
--
轨道信息
数据来源 国际轨道数据
星历时间: 2025-10-28T20:31:55+0800
9小时前
查看轨道信息
半长轴: 6796.169km
偏心率: 0.000474
轨道倾角: 51.635°
近地点辐角 349.459°
升交点赤经 6.342°
平近点角 10.630°
近地点: 414.812km
远地点: 421.256km
周期: 92.930分钟
每日圈数: 15.495533
详细信息
使用方式:
暂无
2D轨道图
3D轨道图
轨道高度分析图
轨道倾角分析图
轨道综合分析图
查看轨道综合分析图